Torna al catalogo

FENGYUN 1C DEB

AttivoPO
NORAD 31746·DEBRIS·🇨🇳 China

Lanciato May 10, 1999 da Taiyuan Satellite Launch Center

Loading…

Prossimi Passaggi (prossime 24 ore)

TLE

AggiornatoSource: Space-Track

Epoca: Sep 13, 2026, 21:09 UTC

1 31746U 99025CEV 26256.88147411  .00023872  00000-0  23478-2 0  9999
2 31746  98.6022  45.9394 0016678  42.6390 317.6117 14.92007477  9406

Traccia FENGYUN 1C DEB in tempo reale con AllMySat

Download on the App Store